Date String (YYYY-MM-DD hh:mm:ss) UTC,Instrument flags,absolute air pressure of the measurement (hPa),sample flow rate (lpm),inlet stack bypass flow (lpm),air temperature of the measurement (°C),ambient temperature measured by the external sensor (°C),aerosol sample conditioner tube jacket temperature (°C),OPC LED temperature (°C),internal box temperature (°C),relative humidity of the measurement (%),span deviation,mass concentration of particles derived from Lorenz-Mie calculation of OPC scattering (μg/m³),mass concentration of particles derived from Lorenz-Mie calculation of OPC scattering (μg/m³),mass concentration of particles derived from Lorenz-Mie calculation of OPC scattering (μg/m³)
DateTimeUTC,F1_M11,P_M11,Q1_M11,Q2_M11,T1_M11,T2_M11,T3_M11,T4_M11,T5_M11,U1_M11,ZSPAN_M11,X2_M11,X0_M11,X1_M11
2024-04-13 17:00:00,SystemResetWarning,0827.5,5.00,000.00,026.0,025.4,000.0,034.1,027.9,010.1,0000.0,0004.27,0013.43,0002.45
2024-04-13 17:01:00,SystemResetWarning,0827.6,5.01,000.00,026.0,025.1,000.0,034.1,027.6,010.3,0000.0,0004.27,0012.91,0002.44
2024-04-13 17:02:00,SystemResetWarning,0827.4,4.99,000.00,025.7,023.2,000.0,034.2,026.6,010.7,0000.0,0004.23,0012.52,0002.44
2024-04-13 17:03:00,SystemResetWarning,0827.4,5.02,000.00,025.3,022.4,000.0,034.1,026.1,010.3,0000.0,0004.22,0012.43,0002.43
2024-04-13 17:04:00,SystemResetWarning,0827.4,5.00,000.00,025.2,022.8,000.0,034.1,026.2,010.3,0000.0,0004.25,0012.54,0002.43
2024-04-13 17:05:00,SystemResetWarning,0827.4,5.00,000.00,025.2,023.1,000.0,033.9,026.4,010.4,0000.0,0004.24,0012.07,0002.44
2024-04-13 17:06:00,SystemResetWarning,0827.4,5.00,000.00,025.2,023.5,000.0,033.8,026.7,010.8,0000.0,0004.23,0012.16,0002.42
2024-04-13 17:07:00,SystemResetWarning,0827.4,5.01,000.00,025.3,023.8,000.0,033.8,026.9,010.3,0000.0,0004.20,0011.88,0002.41
2024-04-13 17:08:00,SystemResetWarning,0827.4,5.00,000.00,025.3,024.0,000.0,033.8,027.1,010.1,0000.0,0004.14,0011.64,0002.40
2024-04-13 17:09:00,SystemResetWarning,0827.4,5.00,000.00,025.4,024.2,000.0,033.8,027.2,010.3,0000.0,0004.12,0011.30,0002.40
2024-04-13 17:10:00,SystemResetWarning,0827.4,5.00,000.00,025.4,024.4,000.0,033.8,027.2,010.7,0000.0,0004.10,0011.32,0002.41
2024-04-13 17:11:00,SystemResetWarning,0827.4,5.00,000.00,025.5,024.6,000.0,033.8,027.3,011.1,0000.0,0004.07,0011.89,0002.40
2024-04-13 17:12:00,SystemResetWarning,0827.4,4.99,000.00,025.5,024.7,000.0,033.8,027.4,010.6,0000.0,0004.08,0012.22,0002.38
2024-04-13 17:13:00,SystemResetWarning,0827.4,5.00,000.00,025.6,024.9,000.0,033.8,027.5,010.6,0000.0,0004.12,0012.65,0002.37
2024-04-13 17:14:00,SystemResetWarning,0827.4,5.00,000.00,025.7,025.0,000.0,033.8,027.6,010.6,0000.0,0004.08,0012.40,0002.35
2024-04-13 17:15:00,SystemResetWarning,0827.4,5.01,000.00,025.7,025.1,000.0,033.8,027.6,010.3,0000.0,0004.01,0012.27,0002.32
2024-04-13 17:16:00,SystemResetWarning,0827.4,5.00,000.00,025.8,025.2,000.0,033.9,027.7,009.8,0000.0,0003.99,0012.89,0002.30
2024-04-13 17:17:00,SystemResetWarning,0827.4,5.01,000.00,025.8,025.3,000.0,033.9,027.7,010.1,0000.0,0003.97,0012.80,0002.28
2024-04-13 17:18:00,SystemResetWarning,0827.4,4.99,000.00,025.8,025.0,000.0,034.0,027.5,010.1,0000.0,0003.93,0012.26,0002.28
2024-04-13 17:19:00,SystemResetWarning,0827.4,5.00,000.00,025.6,023.2,000.0,034.0,026.5,010.2,0000.0,0003.94,0011.17,0002.28
2024-04-13 17:20:00,SystemResetWarning,0827.4,5.02,000.00,025.2,022.3,000.0,034.0,025.9,010.1,0000.0,0003.96,0011.16,0002.29
2024-04-13 17:21:00,SystemResetWarning,0827.4,5.00,000.00,025.1,022.7,000.0,033.9,026.1,010.2,0000.0,0003.96,0011.17,0002.28
2024-04-13 17:22:00,SystemResetWarning,0827.4,5.01,000.00,025.1,023.1,000.0,033.8,026.3,009.6,0000.0,0003.98,0010.90,0002.28
2024-04-13 17:23:00,SystemResetWarning,0827.3,5.01,000.00,025.1,023.4,000.0,033.7,026.6,009.9,0000.0,0004.02,0010.87,0002.28
2024-04-13 17:24:00,SystemResetWarning,0827.4,4.99,000.00,025.2,023.7,000.0,033.7,026.8,010.0,0000.0,0004.01,0010.59,0002.29
2024-04-13 17:25:00,SystemResetWarning,0827.3,5.00,000.00,025.2,024.0,000.0,033.7,026.9,010.1,0000.0,0004.02,0010.82,0002.29
2024-04-13 17:26:00,SystemResetWarning,0827.3,5.00,000.00,025.3,024.2,000.0,033.6,027.1,010.3,0000.0,0004.06,0011.50,0002.29
2024-04-13 17:27:00,SystemResetWarning,0827.4,5.00,000.00,025.3,024.4,000.0,033.6,027.2,010.7,0000.0,0004.10,0011.48,0002.30
2024-04-13 17:28:00,SystemResetWarning,0827.4,5.00,000.00,025.4,024.6,000.0,033.7,027.3,010.6,0000.0,0004.16,0011.37,0002.32
2024-04-13 17:29:00,SystemResetWarning,0827.4,5.00,000.00,025.5,024.7,000.0,033.7,027.4,010.4,0000.0,0004.23,0012.09,0002.32
2024-04-13 17:30:00,SystemResetWarning,0827.3,5.00,000.00,025.5,024.9,000.0,033.7,027.4,010.2,0000.0,0004.23,0012.83,0002.30
2024-04-13 17:31:00,SystemResetWarning,0827.4,4.99,000.00,025.6,025.0,000.0,033.7,027.5,010.7,0000.0,0004.20,0013.50,0002.28
2024-04-13 17:32:00,SystemResetWarning,0827.4,4.99,000.00,025.7,025.1,000.0,033.8,027.6,010.4,0000.0,0004.20,0015.19,0002.28
2024-04-13 17:33:00,SystemResetWarning,0827.4,5.00,000.00,025.7,025.1,000.0,033.8,027.6,009.7,0000.0,0004.20,0015.81,0002.29
2024-04-13 17:34:00,SystemResetWarning,0827.4,5.00,000.00,025.6,024.1,000.0,033.9,027.0,009.6,0000.0,0004.18,0016.00,0002.30
2024-04-13 17:35:00,SystemResetWarning,0827.4,5.00,000.00,025.2,022.4,000.0,033.9,025.9,009.2,0000.0,0004.19,0017.48,0002.29
2024-04-13 17:36:00,SystemResetWarning,0827.4,5.00,000.00,025.0,022.4,000.0,033.9,025.9,010.1,0000.0,0004.12,0017.67,0002.27
2024-04-13 17:37:00,SystemResetWarning,0827.4,5.01,000.00,025.0,022.8,000.0,033.7,026.1,010.1,0000.0,0004.13,0017.63,0002.27
2024-04-13 17:38:00,SystemResetWarning,0827.4,5.00,000.00,025.0,023.2,000.0,033.6,026.4,010.0,0000.0,0004.13,0017.20,0002.26
2024-04-13 17:39:00,SystemResetWarning,0827.4,5.00,000.00,025.0,023.5,000.0,033.6,026.7,009.3,0000.0,0004.08,0018.20,0002.26
2024-04-13 17:40:00,SystemResetWarning,0827.4,5.00,000.00,025.1,023.8,000.0,033.5,026.8,009.0,0000.0,0004.03,0017.67,0002.26
2024-04-13 17:41:00,SystemResetWarning,0827.4,5.00,000.00,025.2,024.1,000.0,033.5,026.9,008.6,0000.0,0004.05,0017.20,0002.26
2024-04-13 17:42:00,SystemResetWarning,0827.4,5.00,000.00,025.2,024.3,000.0,033.5,027.0,009.1,0000.0,0004.08,0016.94,0002.25
2024-04-13 17:43:00,SystemResetWarning,0827.3,4.99,000.00,025.3,024.5,000.0,033.5,027.2,009.9,0000.0,0004.09,0016.37,0002.25
2024-04-13 17:44:00,SystemResetWarning,0827.3,5.00,000.00,025.4,024.7,000.0,033.5,027.2,010.2,0000.0,0004.06,0015.21,0002.23
2024-04-13 17:45:00,SystemResetWarning,0827.3,5.00,000.00,025.4,024.9,000.0,033.6,027.3,009.5,0000.0,0004.01,0015.01,0002.21
2024-04-13 17:46:00,SystemResetWarning,0827.3,5.00,000.00,025.5,025.0,000.0,033.6,027.4,009.4,0000.0,0003.96,0014.46,0002.21
2024-04-13 17:47:00,SystemResetWarning,0827.4,5.01,000.00,025.6,025.1,000.0,033.6,027.5,009.3,0000.0,0003.97,0014.42,0002.23
2024-04-13 17:48:00,SystemResetWarning,0827.2,5.00,000.00,025.6,024.8,000.0,033.7,027.2,009.4,0000.0,0003.94,0014.52,0002.25
2024-04-13 17:49:00,SystemResetWarning,0827.2,4.99,000.00,025.3,023.0,000.0,033.8,026.2,009.5,0000.0,0003.88,0014.09,0002.25
2024-04-13 17:50:00,SystemResetWarning,0827.2,5.01,000.00,025.0,022.3,000.0,033.7,025.8,009.7,0000.0,0003.91,0013.08,0002.24
2024-04-13 17:51:00,SystemResetWarning,0827.2,5.01,000.00,024.9,022.7,000.0,033.7,026.0,009.6,0000.0,0003.96,0013.17,0002.26
2024-04-13 17:52:00,SystemResetWarning,0827.2,4.99,000.00,024.9,023.0,000.0,033.5,026.3,009.3,0000.0,0003.95,0013.86,0002.27
2024-04-13 17:53:00,SystemResetWarning,0827.3,4.99,000.00,025.0,023.4,000.0,033.5,026.5,009.3,0000.0,0003.89,0013.20,0002.28
2024-04-13 17:54:00,SystemResetWarning,0827.3,5.00,000.00,025.0,023.7,000.0,033.4,026.7,009.4,0000.0,0003.92,0013.37,0002.28
2024-04-13 17:55:00,SystemResetWarning,0827.3,5.00,000.00,025.1,024.0,000.0,033.4,026.8,009.1,0000.0,0003.91,0012.80,0002.29
2024-04-13 17:56:00,SystemResetWarning,0827.3,5.01,000.00,025.2,024.2,000.0,033.4,027.0,009.2,0000.0,0003.92,0012.86,0002.29
2024-04-13 17:57:00,SystemResetWarning,0827.4,5.00,000.00,025.2,024.4,000.0,033.4,027.1,009.2,0000.0,0003.90,0012.06,0002.28
2024-04-13 17:58:00,SystemResetWarning,0827.4,4.98,000.00,025.3,024.6,000.0,033.4,027.2,011.2,0000.0,0003.91,0011.71,0002.28
2024-04-13 17:59:00,SystemResetWarning,0827.3,5.00,000.00,025.4,024.8,000.0,033.5,027.3,012.6,0000.0,0004.06,0012.52,0002.45
